Lincoln, IL

4:57 AM CDT on August 18, 2017 (GMT -0500)
Lincoln

Weather History for KAAA - November, 2012

Change the Weather History Date:

Friday, November 16, 2012

  Actual Average (KSPI) Record (KSPI)
Temperature  
Mean Temperature 42 °F -  
Max Temperature 56 °F 50 °F 76 °F (2001)
Min Temperature 28 °F 34 °F 7 °F (1959)
Degree Days  
Heating Degree Days 23    
Moisture  
Dew Point 31 °F    
Average Humidity 73    
Maximum Humidity 93    
Minimum Humidity 39    
Precipitation  
Precipitation 0.00 in - - ()
Sea Level Pressure  
Sea Level Pressure 30.43 in    
Wind  
Wind Speed 2 mph (SSE)    
Max Wind Speed 7 mph    
Max Gust Speed -    
Visibility 9 miles    
Events      
Averages and records for this station are not official NWS values.
T = Trace of Precipitation, MM = Missing Value Source: NWS Daily Summary

Daily Weather History Graph

Daily Weather History Graph

Search for Another Location

Airport or City:

Trip Planner

Search our weather history database for the weather conditions in past years. The results will help you decide how hot, cold, wet, or windy it might be!

Date:

Astronomy

Nov. 16, 2012 Rise Set
Actual Time 6:44 AM CST 4:39 PM CST
Civil Twilight 6:15 AM CST 5:08 PM CST
Nautical Twilight 5:42 AM CST 5:41 PM CST
Astronomical Twilight 5:10 AM CST 6:13 PM CST
Moon 9:39 AM CST (11/16) 7:38 PM CST (11/16)
Length of Visible Light 10h 53m
Length of Day
9h 54m
Waxing Crescent, 12% of the Moon is Illuminated
Nov 16
Waxing Crescent
Nov 20
First Quarter
Nov 28
Full
Dec 6
Last Quarter
Dec 13
New

Hourly Weather History & Observations

Time (CST) Temp. Windchill Dew Point Humidity Pressure Visibility Wind Dir Wind Speed Gust Speed Precip Events Conditions
12:15 AM 31.6 °F - 28.0 °F 87% 30.39 in 7.0 mi Calm Calm - N/A   Clear
12:35 AM 31.1 °F - 27.9 °F 88% 30.39 in 10.0 mi Calm Calm - N/A   Clear
12:55 AM 30.6 °F - 27.7 °F 89% 30.38 in 10.0 mi Calm Calm - N/A   Clear
1:15 AM 30.7 °F - 28.2 °F 90% 30.39 in 10.0 mi Calm Calm - N/A   Clear
1:35 AM 30.7 °F - 28.2 °F 90% 30.39 in 10.0 mi Calm Calm - N/A   Clear
1:55 AM 30.4 °F 26.9 °F 28.2 °F 92% 30.39 in 7.0 mi SSE 3.5 mph - N/A   Clear
2:15 AM 31.6 °F 28.3 °F 28.9 °F 90% 30.39 in 7.0 mi SSE 3.5 mph - N/A   Clear
2:35 AM 31.1 °F - 28.4 °F 90% 30.39 in 7.0 mi Calm Calm - N/A   Clear
2:55 AM 31.1 °F - 28.4 °F 90% 30.39 in 10.0 mi Calm Calm - N/A   Clear
3:15 AM 30.9 °F - 28.2 °F 90% 30.39 in 10.0 mi Calm Calm - N/A   Clear
3:35 AM 30.7 °F - 27.9 °F 89% 30.39 in 10.0 mi Calm Calm - N/A   Clear
3:55 AM 30.2 °F - 27.5 °F 90% 30.39 in 10.0 mi Calm Calm - N/A   Clear
4:15 AM 30.0 °F - 27.5 °F 90% 30.40 in 7.0 mi Calm Calm - N/A   Clear
4:35 AM 30.2 °F - 28.0 °F 92% 30.40 in 7.0 mi Calm Calm - N/A   Clear
4:55 AM 29.3 °F - 27.5 °F 93% 30.41 in 7.0 mi Calm Calm - N/A   Clear
5:15 AM 28.4 °F - 26.4 °F 92% 30.41 in 7.0 mi Calm Calm - N/A   Clear
5:35 AM 29.1 °F - 27.3 °F 93% 30.41 in 7.0 mi Calm Calm - N/A   Clear
5:55 AM 28.9 °F - 27.1 °F 93% 30.41 in 7.0 mi Calm Calm - N/A   Clear
6:15 AM 28.9 °F - 27.1 °F 93% 30.41 in 7.0 mi Calm Calm - N/A   Clear
6:35 AM 28.4 °F - 26.4 °F 92% 30.42 in 7.0 mi Calm Calm - N/A   Clear
6:55 AM 29.1 °F - 27.1 °F 92% 30.42 in 7.0 mi Calm Calm - N/A   Clear
7:15 AM 29.3 °F - 27.5 °F 93% 30.43 in 5.0 mi Calm Calm - N/A   Clear
7:35 AM 30.4 °F - 27.9 °F 90% 30.44 in 7.0 mi Calm Calm - N/A   Clear
7:55 AM 32.0 °F - 29.8 °F 92% 30.44 in 5.0 mi Calm Calm - N/A   Clear
8:15 AM 34.5 °F - 31.6 °F 89% 30.45 in 7.0 mi Calm Calm - N/A   Clear
8:35 AM 36.9 °F 33.1 °F 32.0 °F 83% 30.45 in 7.0 mi SSE 4.6 mph - N/A   Clear
8:55 AM 39.0 °F 35.7 °F 33.3 °F 80% 30.45 in 7.0 mi SSE 4.6 mph - N/A   Clear
9:15 AM 41.5 °F 38.6 °F 34.3 °F 76% 30.46 in 10.0 mi SSE 4.6 mph - N/A   Clear
9:35 AM 43.7 °F 41.1 °F 34.5 °F 70% 30.46 in 10.0 mi South 4.6 mph - N/A   Clear
9:55 AM 45.9 °F 42.3 °F 34.2 °F 64% 30.46 in 10.0 mi South 6.9 mph - N/A   Clear
10:15 AM 47.3 °F - 32.7 °F 57% 30.46 in 10.0 mi South 6.9 mph - N/A   Clear
10:35 AM 48.2 °F - 33.3 °F 56% 30.46 in 10.0 mi South 5.8 mph - N/A   Clear
10:55 AM 50.2 °F - 33.6 °F 53% 30.46 in 10.0 mi South 5.8 mph - N/A   Clear
11:35 AM 52.5 °F - 32.2 °F 46% 30.45 in 10.0 mi SSE 4.6 mph - N/A   Clear
11:55 AM 53.6 °F - 33.3 °F 46% 30.44 in 10.0 mi SSE 4.6 mph - N/A   Clear
12:15 PM 54.0 °F - 31.8 °F 43% 30.44 in 10.0 mi SSE 5.8 mph - N/A   Clear
12:35 PM 54.7 °F - 31.8 °F 42% 30.44 in 10.0 mi SSW 4.6 mph - N/A   Clear
1:15 PM 55.9 °F - 32.7 °F 41% 30.43 in 10.0 mi South 5.8 mph - N/A   Clear
1:35 PM 55.9 °F - 31.6 °F 40% 30.43 in 10.0 mi SE 5.8 mph - N/A   Clear
1:55 PM 56.1 °F - 32.4 °F 41% 30.42 in 10.0 mi SE 5.8 mph - N/A   Clear
2:15 PM 56.3 °F - 31.6 °F 39% 30.42 in 10.0 mi SE 5.8 mph - N/A   Clear
2:35 PM 56.3 °F - 31.6 °F 39% 30.42 in 10.0 mi SE 3.5 mph - N/A   Clear
2:55 PM 55.9 °F - 32.0 °F 40% 30.42 in 10.0 mi SE 5.8 mph - N/A   Clear
3:15 PM 55.4 °F - 31.6 °F 40% 30.43 in 10.0 mi SE 4.6 mph - N/A   Clear
3:35 PM 55.0 °F - 32.0 °F 42% 30.44 in 10.0 mi SSE 3.5 mph - N/A   Clear
3:55 PM 53.4 °F - 34.5 °F 49% 30.44 in 10.0 mi SE 4.6 mph - N/A   Clear
4:15 PM 51.8 °F - 34.3 °F 51% 30.44 in 10.0 mi SE 4.6 mph - N/A   Clear
4:35 PM 50.4 °F - 33.6 °F 53% 30.44 in 10.0 mi SE 3.5 mph - N/A   Clear
4:55 PM 47.3 °F - 34.2 °F 60% 30.44 in 10.0 mi Calm Calm - N/A   Clear
5:15 PM 45.7 °F 44.4 °F 34.2 °F 64% 30.44 in 10.0 mi ESE 3.5 mph - N/A   Clear
5:35 PM 43.9 °F 42.3 °F 34.3 °F 69% 30.44 in 10.0 mi ESE 3.5 mph - N/A   Clear
5:55 PM 43.0 °F - 33.8 °F 70% 30.45 in 10.0 mi Calm Calm - N/A   Clear
6:15 PM 41.7 °F 39.8 °F 33.8 °F 73% 30.45 in 10.0 mi SE 3.5 mph - N/A   Clear
6:35 PM 42.4 °F 40.7 °F 33.6 °F 71% 30.45 in 10.0 mi SE 3.5 mph - N/A   Clear
6:55 PM 41.2 °F - 33.3 °F 73% 30.45 in 10.0 mi Calm Calm - N/A   Clear
7:15 PM 40.6 °F - 32.9 °F 74% 30.45 in 10.0 mi Calm Calm - N/A   Clear
7:55 PM 38.8 °F - 32.4 °F 78% 30.46 in 10.0 mi Calm Calm - N/A   Clear
8:15 PM 38.8 °F - 32.2 °F 77% 30.46 in 10.0 mi Calm Calm - N/A   Clear
8:35 PM 37.8 °F 35.3 °F 32.0 °F 80% 30.46 in 10.0 mi SE 3.5 mph - N/A   Clear
8:55 PM 38.1 °F 34.6 °F 32.0 °F 79% 30.46 in 10.0 mi SE 4.6 mph - N/A   Clear
9:15 PM 37.8 °F - 32.0 °F 80% 30.47 in 10.0 mi Calm Calm - N/A   Clear
9:35 PM 37.4 °F 34.9 °F 32.0 °F 81% 30.47 in 10.0 mi SE 3.5 mph - N/A   Clear
9:55 PM 37.6 °F 35.1 °F 31.5 °F 79% 30.47 in 10.0 mi SE 3.5 mph - N/A   Clear
10:15 PM 36.5 °F - 31.1 °F 81% 30.46 in 10.0 mi Calm Calm - N/A   Clear
10:35 PM 36.1 °F - 31.1 °F 82% 30.46 in 10.0 mi Calm Calm - N/A   Clear
10:55 PM 35.6 °F - 30.9 °F 83% 30.46 in 7.0 mi Calm Calm - N/A   Clear
11:15 PM 35.2 °F - 30.7 °F 84% 30.47 in 7.0 mi Calm Calm - N/A   Clear
11:35 PM 34.9 °F - 30.0 °F 82% 30.47 in 7.0 mi Calm Calm - N/A   Clear
11:55 PM 34.7 °F - 29.7 °F 82% 30.47 in 7.0 mi Calm Calm - N/A   Clear